Find Starlink 35284

NORAD ID: 65741 Int'l Des: 2025-216 Owner: SPXS Country: US Constellation: starlink operational
LEOCIRCULAR

現在のビュー

3D地球を読み込み中...

About Starlink 35284

Starlink 35284 (NORAD 65741) is a starlink constellation satellite (v2 mini) launched Sep 25, 2025 by SPXS of US. It operates in LEO, CIRCULAR orbit with a mass of 575.00 kg.

次回通過

Passes for default location (London). Set your location on the main map for personalized predictions.

高度履歴

Loading altitude history...

軌道要素

1 65741U 25216H 26265.06941277 .00012184 00000-0 37117-3 0 9994
2 65741 53.1581 138.3654 0000890 81.1611 278.9493 15.34397863 56645
Epoch: Sep 22, 2026 • Age: 15 hours

現在のステータス

高度 466.0 km
遠地点 / 近地点 N/A
速度 7.64 km/s
衛星直下点 40.79°N, 29.77°E
打ち上げ日 Sep 25, 2025
運用期間 0.9 years
タイプ internet

技術仕様

分類 Payload
質量 575.00 kg
乾燥質量 530.00 kg
長さ 0.30 m
スパン 29.00 m
形状 ? Box + pan
製造者 SPXS
バスタイプ Starlink V2MO
フェーズステータス In Orbit
所有者/国 SPXS/US

Most Searched